[[{"header":{"parameterUnit":"m.s-1","parameterCategory":1,"la1":30.2991,"la2":30.254,"lo1":-89.0895,"lo2":-89.0444,"dy":0.0017,"dx":0.0017,"nx":28,"ny":28,"refTime":"2025-07-18T03:00:00:Z","depth":0,"parameterNumber":2,"parameterNumberName":"U-component_of_WINDS"},"data":[0,0,0,0,0,0,0,0,0,0,0,0,0,0,0,0,0,0,0,0,0,0,0,0,0,0,0,0,0,0,0,0,0,0,0,0,0,0,0,0,0,0,0,0,0,0,0,0,0,0,0,0,0,0,0,0,0,0,2.839,2.839,0,2.8388,2.8388,2.8388,2.8318,2.8316,2.8314,2.8313,2.8309,2.8311,2.8312,0,0,0,0,0,0,0,0,0,0,0,0,0,2.8329,2.8331,2.839,2.839,2.839,2.8388,2.8388,2.8388,2.8318,2.8316,2.8314,2.8312,2.8309,2.8311,2.8313,0,0,0,0,0,0,0,0,0,0,0,0,0,2.8344,2.8331,2.839,2.8355,2.8352,2.8388,2.8388,2.8388,2.8319,2.8316,2.8313,2.8311,2.8308,2.831,2.8313,2.8382,0,0,2.832,2.8321,0,0,0,0,0,0,0,0,2.8344,2.8347,2.836,2.8357,2.8354,2.8351,2.8365,2.8386,2.832,2.8331,2.8313,2.831,2.8325,2.8326,2.8332,2.8382,2.8382,2.832,2.8322,2.8323,2.8323,0,0,0,0,0,0,0,2.8343,2.8346,2.8389,2.836,2.8357,2.8338,2.8337,2.8369,2.8343,2.833,2.8325,2.8326,2.8323,2.8329,2.8331,2.8382,2.832,2.8322,2.8324,2.8325,2.8484,2.8486,0,0,0,0,0,0,2.8347,2.8346,2.8389,2.8389,2.8342,2.8341,2.834,2.8354,2.8343,2.8339,2.8328,2.8323,2.8327,2.8328,2.8331,2.8407,2.8323,2.8325,2.8326,2.8481,2.8484,2.8487,0,0,0,0,0,0,2.8346,2.8351,2.8389,2.8366,2.837,2.8345,2.8362,2.8356,2.8362,2.8341,2.8336,2.834,2.8325,2.8327,2.8369,2.8406,2.8326,2.8328,2.8478,2.8482,2.8486,2.8563,0,0,0,0,0,0,2.8344,2.8351,2.8379,2.8367,2.8371,2.8429,2.8364,2.8358,2.8367,2.8359,2.8351,2.8347,2.8323,2.8366,2.8371,2.8408,2.833,2.8474,2.8479,2.8484,2.8557,2.8569,2.858,0,0,0,0,0,2.8342,2.8401,2.838,2.8386,2.8405,2.8431,2.8433,2.8405,2.837,2.8396,2.8382,2.8347,2.8402,2.837,2.8376,2.8414,2.8471,2.8478,2.8484,2.8552,2.8567,2.858,0,0,0,0,0,0,2.8418,2.8399,2.8376,2.8433,2.8434,2.8419,2.8451,2.8422,2.8433,2.8426,2.8389,2.8388,2.8434,2.8429,2.8394,2.8478,2.843,2.8438,2.848,2.8494,2.8505,2.8504,2.8332,0,0,0,0,0,2.8441,2.8465,2.8447,2.8499,2.8501,2.8476,2.8487,2.8465,2.8464,2.8464,2.8454,2.8454,2.847,2.8482,2.8497,2.8557,2.8552,2.8585,2.8597,2.8606,2.8612,2.8639,2.8653,2.8508,2.8508,2.8508,0,0,2.8489,2.8482,2.85,2.8514,2.8512,2.8536,2.8477,2.8506,2.8523,2.8469,2.8506,2.8498,2.8496,2.8546,2.8567,2.8543,2.8652,2.8614,2.8622,2.8623,2.8647,2.8661,2.8673,2.8512,2.8511,2.8511,0,0,2.8588,2.8587,2.8628,2.8627,2.8625,2.8608,2.8618,2.8607,2.8599,2.8637,2.8595,2.8614,2.8645,2.8644,2.8647,2.8743,2.871,2.8749,2.8808,2.8835,2.8846,2.8856,2.8886,2.8898,2.8756,2.8756,2.8756,0,2.8648,2.8683,2.8653,2.8683,2.8689,2.8641,2.868,2.8681,2.8684,2.8688,2.8661,2.8696,2.8692,2.8738,2.8761,2.8767,2.8775,2.8749,2.8847,2.8857,2.8865,2.8894,2.8906,2.8761,2.876,2.876,2.8759,0,2.8755,2.878,2.8813,2.8816,2.8826,2.8861,2.8833,2.8847,2.8824,2.8809,2.8845,2.8838,2.8848,2.8859,2.8837,2.8901,2.8886,2.8854,2.8804,2.8884,2.891,2.8921,2.8767,2.8765,2.8764,2.8763,0,0,2.8901,2.8885,2.8897,2.8896,2.8889,2.8907,2.8939,2.8949,2.8959,2.8963,2.8986,2.9012,2.8981,2.8985,2.8963,2.8987,2.9058,2.8951,2.895,2.8968,2.9125,2.9146,2.916,2.9037,2.9039,2.9041,2.9123,0,2.8994,2.9047,2.9019,2.9075,2.9095,2.9049,2.9076,2.9074,2.906,2.9075,2.906,2.9077,2.9037,2.9038,2.906,2.9045,2.9088,2.9039,2.9056,2.9057,2.9055,2.9174,2.9198,2.9276,2.9134,2.9136,2.9137,0,2.9109,2.9116,2.9174,2.9159,2.9167,2.9192,2.9196,2.9212,2.9207,2.9195,2.9199,2.9169,2.9197,2.915,2.9186,2.9153,2.9159,2.9152,2.9154,2.9152,2.91,2.9172,2.9301,2.9311,2.9153,2.9152,2.9151,0,2.9205,2.9229,2.9265,2.9266,2.9252,2.927,2.9264,2.9257,2.9264,2.9268,2.9271,2.928,2.9283,2.9289,2.9262,2.9231,2.93,2.9252,2.9289,2.9289,2.9303,2.9302,2.9432,2.9313,2.9313,2.9312,2.9312,0,2.931,2.9346,2.9307,2.933,2.9368,2.9335,2.9373,2.9363,2.9357,2.9374,2.9336,2.9353,2.9318,2.9331,2.931,2.9341,2.9344,2.9333,2.9327,2.9335,2.9336,2.9336,2.9328,2.9316,2.9315,2.9314,2.9314,0,2.9422,2.9399,2.9435,2.9417,2.9414,2.9442,2.9426,2.9445,2.9429,2.9452,2.9455,2.9429,2.9442,2.9416,2.9427,2.9412,2.9455,2.9442,2.9456,2.9451,2.9488,2.9483,2.9619,2.9633,2.9509,2.951,2.9511,0,2.9489,2.9515,2.95,2.9509,2.9505,2.9521,2.9527,2.9495,2.9503,2.9498,2.9516,2.9527,2.9532,2.9556,2.9537,2.9544,2.9528,2.9575,2.9529,2.9535,2.9524,2.9522,2.9522,2.9584,2.9585,2.9587,2.9588,0,2.9608,2.9595,2.9605,2.961,2.9618,2.9621,2.9621,2.963,2.9596,2.9606,2.9619,2.9624,2.9633,2.9642,2.9644,2.9637,2.9606,2.9603,2.9611,2.9618,2.9624,2.9617,2.9478,2.9599,2.9598,2.9597,2.9597,2.9596,2.9697,2.9717,2.9708,2.972,2.9716,2.9716,2.9732,2.9717,2.9727,2.9731,2.9712,2.9728,2.972,2.972,2.9716,2.9727,2.9706,2.9719,2.9721,2.9724,2.9728,2.9625,2.9728,2.9728,2.9727,2.9727,2.9727,0,2.9811,2.9803,2.9814,2.9814,2.9822,2.9793,2.979,2.9799,2.9814,2.9809,2.9815,2.9828,2.9837,2.9818,2.9823,2.9835,2.9821,2.9838,2.9835,2.9833,2.9749,2.974,2.9849,2.9849,2.9849,2.9849,2.9849,2.9849,2.9871,2.9901,2.9886,2.9913,2.9905,2.992,2.992,2.9919,2.9915,2.9931,2.9937,2.9925,2.9914,2.9918,2.9923,2.9918,2.992,2.9941,2.9929,2.9851,2.9839,2.9828,2.9818,2.9942,2.9942,3.0011,3.0012,3.0013]},{"header":{"parameterUnit":"m.s-1","parameterCategory":1,"la1":30.2991,"la2":30.254,"lo1":-89.0895,"lo2":-89.0444,"dy":0.0017,"dx":0.0017,"nx":28,"ny":28,"refTime":"2025-07-18T03:00:00:Z","depth":0,"parameterNumber":3,"parameterNumberName":"V-component_of_WINDS"},"data":[0,0,0,0,0,0,0,0,0,0,0,0,0,0,0,0,0,0,0,0,0,0,0,0,0,0,0,0,0,0,0,0,0,0,0,0,0,0,0,0,0,0,0,0,0,0,0,0,0,0,0,0,0,0,0,0,0,0,5.1749,5.1751,0,5.1948,5.195,5.1952,5.1935,5.1932,5.1929,5.1926,5.2126,5.2134,5.2142,0,0,0,0,0,0,0,0,0,0,0,0,0,5.1348,5.1356,5.1749,5.1751,5.1754,5.1948,5.195,5.1953,5.1935,5.1932,5.1928,5.1925,5.2124,5.2133,5.2143,0,0,0,0,0,0,0,0,0,0,0,0,0,5.1532,5.1358,5.1748,5.1769,5.1772,5.1947,5.195,5.1954,5.1936,5.1932,5.1927,5.1923,5.212,5.2132,5.2144,5.2311,0,0,5.2182,5.2187,0,0,0,0,0,0,0,0,5.1522,5.1547,5.1763,5.1767,5.1772,5.1912,5.1882,5.2073,5.1937,5.1874,5.1926,5.1921,5.2058,5.2075,5.2123,5.232,5.2329,5.2183,5.219,5.2196,5.2199,0,0,0,0,0,0,0,5.1509,5.1538,5.1827,5.1766,5.1772,5.1766,5.1787,5.1918,5.1989,5.1879,5.1878,5.1902,5.206,5.2111,5.2127,5.2332,5.2182,5.2193,5.2201,5.2206,5.2672,5.2677,0,0,0,0,0,0,5.1492,5.1528,5.1821,5.1833,5.1633,5.1777,5.18,5.1872,5.1988,5.2001,5.1906,5.1901,5.2092,5.2113,5.2134,5.2335,5.2195,5.2207,5.2214,5.2667,5.2673,5.2678,0,0,0,0,0,0,5.1484,5.1519,5.1813,5.168,5.1717,5.1788,5.1869,5.1878,5.1929,5.2008,5.202,5.1945,5.2089,5.2117,5.2266,5.2341,5.2212,5.2224,5.2661,5.2669,5.2676,5.2738,0,0,0,0,0,0,5.1472,5.1516,5.1581,5.1682,5.1725,5.1944,5.1873,5.1885,5.195,5.1946,5.2048,5.2061,5.2088,5.2248,5.2279,5.2356,5.2233,5.2654,5.2664,5.2673,5.2729,5.2747,5.2761,0,0,0,0,0,5.1458,5.1591,5.1585,5.162,5.1809,5.1949,5.1973,5.2002,5.1957,5.2022,5.2072,5.2058,5.2328,5.2264,5.2298,5.238,5.265,5.2661,5.2672,5.2722,5.2743,5.2761,0,0,0,0,0,0,5.1497,5.1605,5.1599,5.1769,5.185,5.1945,5.2029,5.2024,5.2119,5.211,5.2141,5.2165,5.2315,5.2362,5.2289,5.2545,5.2483,5.2501,5.2509,5.2529,5.2545,5.253,5.2243,0,0,0,0,0,5.1525,5.1632,5.1719,5.1861,5.1902,5.1958,5.2021,5.2036,5.2121,5.2154,5.2216,5.2297,5.24,5.2467,5.2567,5.2736,5.2756,5.2809,5.2824,5.2837,5.2853,5.2942,5.2966,5.2716,5.2715,5.2715,0,0,5.1585,5.1657,5.1722,5.187,5.1935,5.2042,5.1987,5.2104,5.2183,5.2172,5.2317,5.2364,5.2456,5.2616,5.2689,5.266,5.2926,5.2852,5.2861,5.287,5.2956,5.298,5.3001,5.2723,5.2722,5.2721,0,0,5.1749,5.1815,5.1939,5.2004,5.2102,5.2138,5.2168,5.2264,5.2295,5.2441,5.2433,5.2527,5.2705,5.277,5.2826,5.301,5.2999,5.3042,5.3125,5.3212,5.3232,5.3249,5.3313,5.3335,5.3057,5.3057,5.3057,0,5.1811,5.1974,5.2003,5.212,5.2184,5.2178,5.2302,5.2363,5.2488,5.2532,5.2497,5.2718,5.278,5.2953,5.2997,5.3044,5.3077,5.303,5.3227,5.3245,5.3261,5.3322,5.3346,5.3062,5.3061,5.3061,5.306,0,5.2043,5.2156,5.2243,5.2364,5.2438,5.2558,5.2603,5.2674,5.2682,5.2721,5.2867,5.2941,5.3053,5.3096,5.3105,5.3269,5.3248,5.322,5.3158,5.3289,5.3347,5.3371,5.3068,5.3066,5.3065,5.3064,0,0,5.2239,5.2372,5.2404,5.2457,5.2563,5.265,5.2768,5.2879,5.2937,5.3023,5.3121,5.327,5.3243,5.3307,5.3324,5.34,5.3538,5.3362,5.3365,5.3391,5.372,5.374,5.3767,5.3531,5.3536,5.3539,5.3712,0,5.2412,5.2623,5.265,5.2836,5.2938,5.2933,5.3035,5.311,5.3148,5.3239,5.3281,5.3385,5.3344,5.3382,5.3458,5.3505,5.3604,5.3493,5.3621,5.3625,5.3597,5.3797,5.3819,5.3978,5.3735,5.3738,5.3741,0,5.2643,5.2734,5.293,5.3019,5.3063,5.3155,5.3256,5.3344,5.3427,5.345,5.352,5.3525,5.3644,5.3577,5.374,5.3664,5.3717,5.3747,5.3754,5.3767,5.3691,5.3814,5.403,5.4053,5.3777,5.3775,5.3772,0,5.2763,5.2935,5.3074,5.312,5.3228,5.3292,5.3339,5.3418,5.3482,5.357,5.3611,5.3712,5.3767,5.3843,5.3875,5.3823,5.4035,5.3971,5.4055,5.4054,5.41,5.4097,5.4327,5.4136,5.4136,5.4135,5.4135,0,5.2953,5.3073,5.3129,5.3215,5.3347,5.3376,5.3506,5.3551,5.362,5.3712,5.3713,5.3799,5.3836,5.3926,5.3952,5.4081,5.4106,5.4126,5.4131,5.4126,5.4123,5.4161,5.415,5.4142,5.414,5.4139,5.4138,0,5.3111,5.3154,5.3304,5.3393,5.3418,5.3512,5.3587,5.3668,5.3704,5.382,5.3849,5.3906,5.4013,5.4052,5.4182,5.4198,5.4348,5.4344,5.432,5.4321,5.4402,5.4393,5.4664,5.47,5.4486,5.4488,5.449,0,5.3229,5.3321,5.3419,5.3481,5.3531,5.3631,5.3695,5.3726,5.3793,5.3892,5.3961,5.4067,5.4153,5.4323,5.4375,5.4474,5.4472,5.4559,5.4486,5.4477,5.4471,5.4465,5.4473,5.4573,5.4575,5.4577,5.4579,0,5.3434,5.3449,5.3543,5.3644,5.372,5.3801,5.3879,5.3929,5.3971,5.4045,5.4154,5.4221,5.4353,5.4457,5.4557,5.4604,5.4598,5.4601,5.4625,5.4621,5.4602,5.4611,5.4356,5.4595,5.4593,5.4592,5.4591,5.459,5.3575,5.3654,5.3735,5.3838,5.39,5.3972,5.4051,5.4097,5.4189,5.4299,5.4311,5.4428,5.4505,5.4639,5.469,5.478,5.4755,5.4791,5.48,5.4808,5.4813,5.4588,5.4798,5.4798,5.4797,5.4797,5.4797,0,5.3777,5.3828,5.3923,5.4031,5.4111,5.4099,5.4183,5.4251,5.4354,5.4427,5.4511,5.4635,5.4735,5.4794,5.4894,5.4954,5.4954,5.4979,5.4975,5.4985,5.483,5.4799,5.4978,5.4978,5.4978,5.4978,5.4978,5.4978,5.3892,5.4026,5.4051,5.4214,5.4264,5.4378,5.4427,5.4492,5.455,5.4689,5.4772,5.481,5.4876,5.498,5.5071,5.5085,5.5121,5.5149,5.5161,5.5015,5.4996,5.4979,5.4949,5.5157,5.5157,5.5308,5.531,5.5311]}]]